Year,Month,Day,Hour,Minute,Value (Times are PST for temperature in C)
2012,05,26,00,00,10.40
2012,05,26,00,01,10.40
2012,05,26,00,02,10.40
2012,05,26,00,03,10.40
2012,05,26,00,04,10.30
2012,05,26,00,05,10.30
2012,05,26,00,06,10.30
2012,05,26,00,07,10.30
2012,05,26,00,08,10.20
2012,05,26,00,09,10.20
2012,05,26,00,10,10.20
2012,05,26,00,11,10.20
2012,05,26,00,12,10.20
2012,05,26,00,13,10.10
2012,05,26,00,14,10.10
2012,05,26,00,15,10.10
2012,05,26,00,16,10.10
2012,05,26,00,17,10.10
2012,05,26,00,18,10.10
2012,05,26,00,19,10.10
2012,05,26,00,20,10.10
2012,05,26,00,21,10.10
2012,05,26,00,22,10.10
2012,05,26,00,23,10.10
2012,05,26,00,24,10.10
2012,05,26,00,25,10.10
2012,05,26,00,26,10.00
2012,05,26,00,27,9.90
2012,05,26,00,28,9.90
2012,05,26,00,29,9.90
2012,05,26,00,30,9.90
2012,05,26,00,31,9.90
2012,05,26,00,32,9.90
2012,05,26,00,33,9.90
2012,05,26,00,34,9.90
2012,05,26,00,35,9.90
2012,05,26,00,36,9.90
2012,05,26,00,37,9.90
2012,05,26,00,38,9.90
2012,05,26,00,39,9.90
2012,05,26,00,40,9.90
2012,05,26,00,41,9.90
2012,05,26,00,42,9.90
2012,05,26,00,43,9.90
2012,05,26,00,44,10.00
2012,05,26,00,45,10.10
2012,05,26,00,46,10.10
2012,05,26,00,47,10.10
2012,05,26,00,48,10.10
2012,05,26,00,49,10.10
2012,05,26,00,50,10.10
2012,05,26,00,51,10.10
2012,05,26,00,52,10.10
2012,05,26,00,53,10.10
2012,05,26,00,54,10.00
2012,05,26,00,55,9.90
2012,05,26,00,56,9.90
2012,05,26,00,57,9.90
2012,05,26,00,58,9.90
2012,05,26,00,59,9.90
2012,05,26,01,00,9.90
2012,05,26,01,01,9.90
2012,05,26,01,02,9.90
2012,05,26,01,03,9.80
2012,05,26,01,04,9.80
2012,05,26,01,05,9.80
2012,05,26,01,06,9.80
2012,05,26,01,07,9.70
2012,05,26,01,08,9.70
2012,05,26,01,09,9.70
2012,05,26,01,10,9.70
2012,05,26,01,11,9.70
2012,05,26,01,12,9.70
2012,05,26,01,13,9.70
2012,05,26,01,14,9.70
2012,05,26,01,15,9.80
2012,05,26,01,16,9.80
2012,05,26,01,17,9.80
2012,05,26,01,18,9.80
2012,05,26,01,19,9.80
2012,05,26,01,20,9.80
2012,05,26,01,21,9.80
2012,05,26,01,22,9.80
2012,05,26,01,23,9.80
2012,05,26,01,24,9.80
2012,05,26,01,25,9.80
2012,05,26,01,26,9.80
2012,05,26,01,27,9.80
2012,05,26,01,28,9.80
2012,05,26,01,29,9.70
2012,05,26,01,30,9.70
2012,05,26,01,31,9.70
2012,05,26,01,32,9.70
2012,05,26,01,33,9.70
2012,05,26,01,34,9.70
2012,05,26,01,35,9.70
2012,05,26,01,36,9.70
2012,05,26,01,37,9.70
2012,05,26,01,38,9.70
2012,05,26,01,39,9.70
2012,05,26,01,40,9.70
2012,05,26,01,41,9.60
2012,05,26,01,42,9.60
2012,05,26,01,43,9.60
2012,05,26,01,44,9.60
2012,05,26,01,45,9.50
2012,05,26,01,46,9.50
2012,05,26,01,47,9.50
2012,05,26,01,48,9.50
2012,05,26,01,49,9.50
2012,05,26,01,50,9.40
2012,05,26,01,51,9.40
2012,05,26,01,52,9.40
2012,05,26,01,53,9.40
2012,05,26,01,54,9.40
2012,05,26,01,55,9.40
2012,05,26,01,56,9.40
2012,05,26,01,57,9.30
2012,05,26,01,58,9.30
2012,05,26,01,59,9.30
2012,05,26,02,00,9.30
2012,05,26,02,01,9.30
2012,05,26,02,02,9.30
2012,05,26,02,03,9.30
2012,05,26,02,04,9.30
2012,05,26,02,05,9.30
2012,05,26,02,06,9.30
2012,05,26,02,07,9.30
2012,05,26,02,08,9.30
2012,05,26,02,09,9.30
2012,05,26,02,10,9.30
2012,05,26,02,11,9.30
2012,05,26,02,12,9.30
2012,05,26,02,13,9.20
2012,05,26,02,14,9.20
2012,05,26,02,15,9.20
2012,05,26,02,16,9.20
2012,05,26,02,17,9.20
2012,05,26,02,18,9.20
2012,05,26,02,19,9.20
2012,05,26,02,20,9.20
2012,05,26,02,21,9.20
2012,05,26,02,22,9.20
2012,05,26,02,23,9.20
2012,05,26,02,24,9.20
2012,05,26,02,25,9.20
2012,05,26,02,26,9.20
2012,05,26,02,27,9.20
2012,05,26,02,28,9.20
2012,05,26,02,29,9.20
2012,05,26,02,30,9.20
2012,05,26,02,31,9.20
2012,05,26,02,32,9.20
2012,05,26,02,33,9.20
2012,05,26,02,34,9.20
2012,05,26,02,35,9.20
2012,05,26,02,36,9.20
2012,05,26,02,37,9.20
2012,05,26,02,38,9.20
2012,05,26,02,39,9.30
2012,05,26,02,40,9.30
2012,05,26,02,41,9.40
2012,05,26,02,42,9.40
2012,05,26,02,43,9.50
2012,05,26,02,44,9.50
2012,05,26,02,45,9.50
2012,05,26,02,46,9.60
2012,05,26,02,47,9.60
2012,05,26,02,48,9.60
2012,05,26,02,49,9.70
2012,05,26,02,50,9.70
2012,05,26,02,51,9.70
2012,05,26,02,52,9.70
2012,05,26,02,53,9.70
2012,05,26,02,54,9.80
2012,05,26,02,55,9.80
2012,05,26,02,56,9.90
2012,05,26,02,57,9.90
2012,05,26,02,58,9.90
2012,05,26,02,59,10.00
2012,05,26,03,00,10.10
2012,05,26,03,01,10.10
2012,05,26,03,02,10.10
2012,05,26,03,03,10.10
2012,05,26,03,04,10.10
2012,05,26,03,05,10.10
2012,05,26,03,06,10.20
2012,05,26,03,07,10.20
2012,05,26,03,08,10.20
2012,05,26,03,09,10.20
2012,05,26,03,10,10.30
2012,05,26,03,11,10.30
2012,05,26,03,12,10.30
2012,05,26,03,13,10.30
2012,05,26,03,14,10.30
2012,05,26,03,15,10.30
2012,05,26,03,16,10.30
2012,05,26,03,17,10.40
2012,05,26,03,18,10.40
2012,05,26,03,19,10.40
2012,05,26,03,20,10.40
2012,05,26,03,21,10.40
2012,05,26,03,22,10.30
2012,05,26,03,23,10.30
2012,05,26,03,24,10.30
2012,05,26,03,25,10.30
2012,05,26,03,26,10.30
2012,05,26,03,27,10.30
2012,05,26,03,28,10.30
2012,05,26,03,29,10.30
2012,05,26,03,30,10.30
2012,05,26,03,31,10.30
2012,05,26,03,32,10.30
2012,05,26,03,33,10.30
2012,05,26,03,34,10.30
2012,05,26,03,35,10.30
2012,05,26,03,36,10.30
2012,05,26,03,37,10.30
2012,05,26,03,38,10.30
2012,05,26,03,39,10.30
2012,05,26,03,40,10.30
2012,05,26,03,41,10.30
2012,05,26,03,42,10.30
2012,05,26,03,43,10.30
2012,05,26,03,44,10.40
2012,05,26,03,45,10.40
2012,05,26,03,46,10.50
2012,05,26,03,47,10.60
2012,05,26,03,48,10.60
2012,05,26,03,49,10.80
2012,05,26,03,50,10.90
2012,05,26,03,51,11.00
2012,05,26,03,52,11.10
2012,05,26,03,53,11.20
2012,05,26,03,54,11.30
2012,05,26,03,55,11.40
2012,05,26,03,56,11.50
2012,05,26,03,57,11.60
2012,05,26,03,58,11.60
2012,05,26,03,59,11.70
2012,05,26,04,00,11.80
2012,05,26,04,01,11.80
2012,05,26,04,02,11.80
2012,05,26,04,03,11.80
2012,05,26,04,04,11.90
2012,05,26,04,05,11.90
2012,05,26,04,06,11.90
2012,05,26,04,07,12.00
2012,05,26,04,08,12.00
2012,05,26,04,09,12.00
2012,05,26,04,10,12.00
2012,05,26,04,11,12.00
2012,05,26,04,12,12.00
2012,05,26,04,13,12.00
2012,05,26,04,14,12.00
2012,05,26,04,15,12.00
2012,05,26,04,16,12.00
2012,05,26,04,17,12.00
2012,05,26,04,18,12.00
2012,05,26,04,19,12.00
2012,05,26,04,20,11.90
2012,05,26,04,21,11.90
2012,05,26,04,22,11.90
2012,05,26,04,23,11.90
2012,05,26,04,24,11.90
2012,05,26,04,25,11.90
2012,05,26,04,26,11.90
2012,05,26,04,27,11.80
2012,05,26,04,28,11.80
2012,05,26,04,29,11.80
2012,05,26,04,30,11.80
2012,05,26,04,31,11.80
2012,05,26,04,32,11.80
2012,05,26,04,33,11.80
2012,05,26,04,34,11.80
2012,05,26,04,35,11.80
2012,05,26,04,36,11.80
2012,05,26,04,37,11.80
2012,05,26,04,38,11.80
2012,05,26,04,39,11.80
2012,05,26,04,40,11.80
2012,05,26,04,41,11.80
2012,05,26,04,42,11.80
2012,05,26,04,43,11.80
2012,05,26,04,44,11.80
2012,05,26,04,45,11.80
2012,05,26,04,46,11.80
2012,05,26,04,47,11.80
2012,05,26,04,48,11.80
2012,05,26,04,49,11.80
2012,05,26,04,50,11.80
2012,05,26,04,51,11.80
2012,05,26,04,52,11.80
2012,05,26,04,53,11.90
2012,05,26,04,54,11.90
2012,05,26,04,55,11.90
2012,05,26,04,56,11.90
2012,05,26,04,57,11.90
2012,05,26,04,58,11.90
2012,05,26,04,59,12.00
2012,05,26,05,00,12.00
2012,05,26,05,01,12.00
2012,05,26,05,02,12.00
2012,05,26,05,03,12.00
2012,05,26,05,04,12.00
2012,05,26,05,05,12.10
2012,05,26,05,06,12.10
2012,05,26,05,07,12.10
2012,05,26,05,08,12.10
2012,05,26,05,09,12.10
2012,05,26,05,10,12.10
2012,05,26,05,11,12.10
2012,05,26,05,12,12.10
2012,05,26,05,13,12.10
2012,05,26,05,14,12.10
2012,05,26,05,15,12.00
2012,05,26,05,16,12.00
2012,05,26,05,17,12.00
2012,05,26,05,18,12.00
2012,05,26,05,19,12.00
2012,05,26,05,20,12.00
2012,05,26,05,21,12.00
2012,05,26,05,22,11.90
2012,05,26,05,23,11.90
2012,05,26,05,24,11.90
2012,05,26,05,25,11.90
2012,05,26,05,26,11.90
2012,05,26,05,27,11.90
2012,05,26,05,28,11.90
2012,05,26,05,29,11.90
2012,05,26,05,30,11.90
2012,05,26,05,31,11.80
2012,05,26,05,32,11.80
2012,05,26,05,33,11.80
2012,05,26,05,34,11.80
2012,05,26,05,35,11.80
2012,05,26,05,36,11.80
2012,05,26,05,37,11.80
2012,05,26,05,38,11.80
2012,05,26,05,39,11.80
2012,05,26,05,40,11.80
2012,05,26,05,41,11.80
2012,05,26,05,42,11.80
2012,05,26,05,43,11.80
2012,05,26,05,44,11.80
2012,05,26,05,45,11.80
2012,05,26,05,46,11.80
2012,05,26,05,47,11.80
2012,05,26,05,48,11.80
2012,05,26,05,49,11.80
2012,05,26,05,50,11.70
2012,05,26,05,51,11.70
2012,05,26,05,52,11.70
2012,05,26,05,53,11.70
2012,05,26,05,54,11.70
2012,05,26,05,55,11.70
2012,05,26,05,56,11.70
2012,05,26,05,57,11.70
2012,05,26,05,58,11.70
2012,05,26,05,59,11.70
2012,05,26,06,00,11.70
2012,05,26,06,01,11.70
2012,05,26,06,02,11.70
2012,05,26,06,03,11.70
2012,05,26,06,04,11.70
2012,05,26,06,05,11.70
2012,05,26,06,06,11.70
2012,05,26,06,07,11.70
2012,05,26,06,08,11.70
2012,05,26,06,09,11.80
2012,05,26,06,10,11.80
2012,05,26,06,11,11.80
2012,05,26,06,12,11.80
2012,05,26,06,13,11.80
2012,05,26,06,14,11.80
2012,05,26,06,15,11.80
2012,05,26,06,16,11.80
2012,05,26,06,17,11.80
2012,05,26,06,18,11.80
2012,05,26,06,19,11.80
2012,05,26,06,20,11.80
2012,05,26,06,21,11.80
2012,05,26,06,22,11.80
2012,05,26,06,23,11.80
2012,05,26,06,24,11.80
2012,05,26,06,25,11.80
2012,05,26,06,26,11.80
2012,05,26,06,27,11.80
2012,05,26,06,28,11.80
2012,05,26,06,29,11.80
2012,05,26,06,30,11.80
2012,05,26,06,31,11.80
2012,05,26,06,32,11.80
2012,05,26,06,33,11.80
2012,05,26,06,34,11.80
2012,05,26,06,35,11.80
2012,05,26,06,36,11.80
2012,05,26,06,37,11.80
2012,05,26,06,38,11.80
2012,05,26,06,39,11.80
2012,05,26,06,40,11.80
2012,05,26,06,41,11.80
2012,05,26,06,42,11.80
2012,05,26,06,43,11.80
2012,05,26,06,44,11.80
2012,05,26,06,45,11.80
2012,05,26,06,46,11.90
2012,05,26,06,47,11.90
2012,05,26,06,48,11.90
2012,05,26,06,49,11.90
2012,05,26,06,50,11.90
2012,05,26,06,51,11.90
2012,05,26,06,52,11.90
2012,05,26,06,53,11.90
2012,05,26,06,54,11.90
2012,05,26,06,55,11.90
2012,05,26,06,56,11.90
2012,05,26,06,57,11.90
2012,05,26,06,58,12.00
2012,05,26,06,59,12.00
2012,05,26,07,00,12.00
2012,05,26,07,01,12.10
2012,05,26,07,02,12.20
2012,05,26,07,03,12.20
2012,05,26,07,04,12.30
2012,05,26,07,05,12.40
2012,05,26,07,06,12.50
2012,05,26,07,07,12.50
2012,05,26,07,08,12.50
2012,05,26,07,09,12.60
2012,05,26,07,10,12.60
2012,05,26,07,11,12.60
2012,05,26,07,12,12.70
2012,05,26,07,13,12.70
2012,05,26,07,14,12.70
2012,05,26,07,15,12.70
2012,05,26,07,16,12.70
2012,05,26,07,17,12.80
2012,05,26,07,18,12.90
2012,05,26,07,19,13.00
2012,05,26,07,20,13.10
2012,05,26,07,21,13.30
2012,05,26,07,22,13.40
2012,05,26,07,23,13.50
2012,05,26,07,24,13.60
2012,05,26,07,25,13.70
2012,05,26,07,26,13.80
2012,05,26,07,27,13.90
2012,05,26,07,28,14.00
2012,05,26,07,29,14.10
2012,05,26,07,30,14.20
2012,05,26,07,31,14.20
2012,05,26,07,32,14.20
2012,05,26,07,33,14.20
2012,05,26,07,34,14.20
2012,05,26,07,35,14.20
2012,05,26,07,36,14.20
2012,05,26,07,37,14.30
2012,05,26,07,38,14.40
2012,05,26,07,39,14.40
2012,05,26,07,40,14.50
2012,05,26,07,41,14.50
2012,05,26,07,42,14.50
2012,05,26,07,43,14.50
2012,05,26,07,44,14.50
2012,05,26,07,45,14.60
2012,05,26,07,46,14.60
2012,05,26,07,47,14.60
2012,05,26,07,48,14.60
2012,05,26,07,49,14.60
2012,05,26,07,50,14.60
2012,05,26,07,51,14.70
2012,05,26,07,52,14.70
2012,05,26,07,53,14.70
2012,05,26,07,54,14.70
2012,05,26,07,55,14.70
2012,05,26,07,56,14.70
2012,05,26,07,57,14.70
2012,05,26,07,58,14.70
2012,05,26,07,59,14.60
2012,05,26,08,00,14.60
2012,05,26,08,01,14.60
2012,05,26,08,02,14.60
2012,05,26,08,03,14.60
2012,05,26,08,04,14.50
2012,05,26,08,05,14.50
2012,05,26,08,06,14.50
2012,05,26,08,07,14.60
2012,05,26,08,08,14.60
2012,05,26,08,09,14.70
2012,05,26,08,10,14.70
2012,05,26,08,11,14.70
2012,05,26,08,12,14.80
2012,05,26,08,13,14.80
2012,05,26,08,14,14.90
2012,05,26,08,15,14.90
2012,05,26,08,16,15.00
2012,05,26,08,17,15.00
2012,05,26,08,18,15.10
2012,05,26,08,19,15.20
2012,05,26,08,20,15.30
2012,05,26,08,21,15.40
2012,05,26,08,22,15.40
2012,05,26,08,23,15.50
2012,05,26,08,24,15.60
2012,05,26,08,25,15.60
2012,05,26,08,26,15.70
2012,05,26,08,27,15.70
2012,05,26,08,28,15.80
2012,05,26,08,29,15.80
2012,05,26,08,30,15.90
2012,05,26,08,31,15.90
2012,05,26,08,32,16.00
2012,05,26,08,33,16.10
2012,05,26,08,34,16.20
2012,05,26,08,35,16.30
2012,05,26,08,36,16.30
2012,05,26,08,37,16.30
2012,05,26,08,38,16.40
2012,05,26,08,39,16.40
2012,05,26,08,40,16.40
2012,05,26,08,41,16.50
2012,05,26,08,42,16.60
2012,05,26,08,43,16.60
2012,05,26,08,44,16.60
2012,05,26,08,45,16.70
2012,05,26,08,46,16.70
2012,05,26,08,47,16.80
2012,05,26,08,48,16.80
2012,05,26,08,49,16.90
2012,05,26,08,50,16.90
2012,05,26,08,51,16.90
2012,05,26,08,52,16.90
2012,05,26,08,53,17.00
2012,05,26,08,54,17.00
2012,05,26,08,55,17.10
2012,05,26,08,56,17.10
2012,05,26,08,57,17.10
2012,05,26,08,58,17.00
2012,05,26,08,59,17.00
2012,05,26,09,00,16.90
2012,05,26,09,01,16.80
2012,05,26,09,02,16.80
2012,05,26,09,03,16.80
2012,05,26,09,04,16.80
2012,05,26,09,05,16.80
2012,05,26,09,06,16.90
2012,05,26,09,07,17.00
2012,05,26,09,08,17.00
2012,05,26,09,09,17.00
2012,05,26,09,10,17.10
2012,05,26,09,11,17.10
2012,05,26,09,12,17.10
2012,05,26,09,13,17.10
2012,05,26,09,14,17.10
2012,05,26,09,15,17.10
2012,05,26,09,16,17.20
2012,05,26,09,17,17.20
2012,05,26,09,18,17.30
2012,05,26,09,19,17.30
2012,05,26,09,20,17.30
2012,05,26,09,21,17.40
2012,05,26,09,22,17.50
2012,05,26,09,23,17.60
2012,05,26,09,24,17.70
2012,05,26,09,25,17.70
2012,05,26,09,26,17.80
2012,05,26,09,27,17.80
2012,05,26,09,28,17.90
2012,05,26,09,29,17.90
2012,05,26,09,30,17.90
2012,05,26,09,31,17.90
2012,05,26,09,32,17.90
2012,05,26,09,33,17.90
2012,05,26,09,34,17.90
2012,05,26,09,35,17.90
2012,05,26,09,36,17.90
2012,05,26,09,37,17.90
2012,05,26,09,38,17.90
2012,05,26,09,39,17.90
2012,05,26,09,40,17.90
2012,05,26,09,41,17.90
2012,05,26,09,42,17.90
2012,05,26,09,43,17.90
2012,05,26,09,44,17.90
2012,05,26,09,45,17.90
2012,05,26,09,46,17.90
2012,05,26,09,47,17.90
2012,05,26,09,48,17.90
2012,05,26,09,49,18.00
2012,05,26,09,50,18.10
2012,05,26,09,51,18.10
2012,05,26,09,52,18.10
2012,05,26,09,53,18.10
2012,05,26,09,54,18.10
2012,05,26,09,55,18.20
2012,05,26,09,56,18.20
2012,05,26,09,57,18.20
2012,05,26,09,58,18.20
2012,05,26,09,59,18.20
2012,05,26,10,00,18.20
2012,05,26,10,01,18.20
2012,05,26,10,02,18.20
2012,05,26,10,03,18.30
2012,05,26,10,04,18.30
2012,05,26,10,05,18.40
2012,05,26,10,06,18.50
2012,05,26,10,07,18.50
2012,05,26,10,08,18.60
2012,05,26,10,09,18.60
2012,05,26,10,10,18.70
2012,05,26,10,11,18.80
2012,05,26,10,12,18.80
2012,05,26,10,13,18.90
2012,05,26,10,14,18.90
2012,05,26,10,15,18.90
2012,05,26,10,16,19.00
2012,05,26,10,17,19.10
2012,05,26,10,18,19.10
2012,05,26,10,19,19.20
2012,05,26,10,20,19.20
2012,05,26,10,21,19.30
2012,05,26,10,22,19.30
2012,05,26,10,23,19.30
2012,05,26,10,24,19.30
2012,05,26,10,25,19.20
2012,05,26,10,26,19.10
2012,05,26,10,27,19.10
2012,05,26,10,28,19.10
2012,05,26,10,29,19.10
2012,05,26,10,30,19.10
2012,05,26,10,31,19.20
2012,05,26,10,32,19.30
2012,05,26,10,33,19.30
2012,05,26,10,34,19.30
2012,05,26,10,35,19.40
2012,05,26,10,36,19.40
2012,05,26,10,37,19.50
2012,05,26,10,38,19.50
2012,05,26,10,39,19.60
2012,05,26,10,40,19.60
2012,05,26,10,41,19.70
2012,05,26,10,42,19.80
2012,05,26,10,43,19.90
2012,05,26,10,44,20.00
2012,05,26,10,45,20.10
2012,05,26,10,46,20.20
2012,05,26,10,47,20.20
2012,05,26,10,48,20.20
2012,05,26,10,49,20.20
2012,05,26,10,50,20.20
2012,05,26,10,51,20.20
2012,05,26,10,52,20.20
2012,05,26,10,53,20.20
2012,05,26,10,54,20.20
2012,05,26,10,55,20.20
2012,05,26,10,56,20.20
2012,05,26,10,57,20.20
2012,05,26,10,58,20.20
2012,05,26,10,59,20.20
2012,05,26,11,00,20.20
2012,05,26,11,01,20.20
2012,05,26,11,02,20.20
2012,05,26,11,03,20.20
2012,05,26,11,04,20.20
2012,05,26,11,05,20.20
2012,05,26,11,06,20.20
2012,05,26,11,07,20.20
2012,05,26,11,08,20.20
2012,05,26,11,09,20.20
2012,05,26,11,10,20.20
2012,05,26,11,11,20.30
2012,05,26,11,12,20.30
2012,05,26,11,13,20.30
2012,05,26,11,14,20.30
2012,05,26,11,15,20.40
2012,05,26,11,16,20.50
2012,05,26,11,17,20.50
2012,05,26,11,18,20.50
2012,05,26,11,19,20.50
2012,05,26,11,20,20.50
2012,05,26,11,21,20.50
2012,05,26,11,22,20.50
2012,05,26,11,23,20.60
2012,05,26,11,24,20.60
2012,05,26,11,25,20.70
2012,05,26,11,26,20.80
2012,05,26,11,27,20.90
2012,05,26,11,28,21.00
2012,05,26,11,29,21.00
2012,05,26,11,30,21.10
2012,05,26,11,31,21.20
2012,05,26,11,32,21.20
2012,05,26,11,33,21.20
2012,05,26,11,34,21.20
2012,05,26,11,35,21.20
2012,05,26,11,36,21.20
2012,05,26,11,37,21.20
2012,05,26,11,38,21.30
2012,05,26,11,39,21.30
2012,05,26,11,40,21.30
2012,05,26,11,41,21.30
2012,05,26,11,42,21.30
2012,05,26,11,43,21.30
2012,05,26,11,44,21.40
2012,05,26,11,45,21.40
2012,05,26,11,46,21.40
2012,05,26,11,47,21.40
2012,05,26,11,48,21.50
2012,05,26,11,49,21.60
2012,05,26,11,50,21.60
2012,05,26,11,51,21.60
2012,05,26,11,52,21.60
2012,05,26,11,53,21.60
2012,05,26,11,54,21.60
2012,05,26,11,55,21.70
2012,05,26,11,56,21.80
2012,05,26,11,57,21.90
2012,05,26,11,58,22.10
2012,05,26,11,59,22.20
2012,05,26,12,00,22.30
2012,05,26,12,01,22.40
2012,05,26,12,02,22.30
2012,05,26,12,03,22.30
2012,05,26,12,04,22.20
2012,05,26,12,05,22.20
2012,05,26,12,06,22.20
2012,05,26,12,07,22.20
2012,05,26,12,08,22.20
2012,05,26,12,09,22.20
2012,05,26,12,10,22.30
2012,05,26,12,11,22.30
2012,05,26,12,12,22.40
2012,05,26,12,13,22.50
2012,05,26,12,14,22.50
2012,05,26,12,15,22.50
2012,05,26,12,16,22.60
2012,05,26,12,17,22.60
2012,05,26,12,18,22.60
2012,05,26,12,19,22.60
2012,05,26,12,20,22.60
2012,05,26,12,21,22.70
2012,05,26,12,22,22.70
2012,05,26,12,23,22.70
2012,05,26,12,24,22.70
2012,05,26,12,25,22.70
2012,05,26,12,26,22.60
2012,05,26,12,27,22.70
2012,05,26,12,28,22.70
2012,05,26,12,29,22.70
2012,05,26,12,30,22.70
2012,05,26,12,31,22.80
2012,05,26,12,32,22.80
2012,05,26,12,33,22.90
2012,05,26,12,34,22.90
2012,05,26,12,35,23.00
2012,05,26,12,36,23.10
2012,05,26,12,37,23.20
2012,05,26,12,38,23.20
2012,05,26,12,39,23.20
2012,05,26,12,40,23.30
2012,05,26,12,41,23.30
2012,05,26,12,42,23.30
2012,05,26,12,43,23.30
2012,05,26,12,44,23.30
2012,05,26,12,45,23.40
2012,05,26,12,46,23.60
2012,05,26,12,47,23.60
2012,05,26,12,48,23.60
2012,05,26,12,49,23.70
2012,05,26,12,50,23.70
2012,05,26,12,51,23.70
2012,05,26,12,52,23.70
2012,05,26,12,53,23.70
2012,05,26,12,54,23.70
2012,05,26,12,55,23.70
2012,05,26,12,56,23.70
2012,05,26,12,57,23.70
2012,05,26,12,58,23.80
2012,05,26,12,59,23.90
2012,05,26,13,00,23.90
2012,05,26,13,01,24.00
2012,05,26,13,02,23.90
2012,05,26,13,03,23.80
2012,05,26,13,04,23.70
2012,05,26,13,05,23.70
2012,05,26,13,06,23.70
2012,05,26,13,07,23.80
2012,05,26,13,08,23.80
2012,05,26,13,09,23.80
2012,05,26,13,10,23.80
2012,05,26,13,11,23.80
2012,05,26,13,12,23.80
2012,05,26,13,13,23.80
2012,05,26,13,14,23.80
2012,05,26,13,15,23.80
2012,05,26,13,16,23.80
2012,05,26,13,17,23.90
2012,05,26,13,18,23.90
2012,05,26,13,19,23.90
2012,05,26,13,20,23.90
2012,05,26,13,21,24.00
2012,05,26,13,22,24.10
2012,05,26,13,23,24.10
2012,05,26,13,24,24.10
2012,05,26,13,25,24.10
2012,05,26,13,26,24.10
2012,05,26,13,27,24.10
2012,05,26,13,28,24.10
2012,05,26,13,29,24.00
2012,05,26,13,30,23.90
2012,05,26,13,31,23.90
2012,05,26,13,32,23.80
2012,05,26,13,33,23.80
2012,05,26,13,34,23.80
2012,05,26,13,35,23.80
2012,05,26,13,36,23.90
2012,05,26,13,37,23.90
2012,05,26,13,38,24.00
2012,05,26,13,39,24.10
2012,05,26,13,40,24.00
2012,05,26,13,41,23.90
2012,05,26,13,42,23.90
2012,05,26,13,43,23.80
2012,05,26,13,44,23.80
2012,05,26,13,45,23.80
2012,05,26,13,46,23.90
2012,05,26,13,47,23.90
2012,05,26,13,48,23.80
2012,05,26,13,49,23.70
2012,05,26,13,50,23.70
2012,05,26,13,51,23.70
2012,05,26,13,52,23.70
2012,05,26,13,53,23.70
2012,05,26,13,54,23.70
2012,05,26,13,55,23.70
2012,05,26,13,56,23.80
2012,05,26,13,57,23.70
2012,05,26,13,58,23.70
2012,05,26,13,59,23.70
2012,05,26,14,00,23.70
2012,05,26,14,01,23.70
2012,05,26,14,02,23.80
2012,05,26,14,03,23.80
2012,05,26,14,04,23.90
2012,05,26,14,05,24.00
2012,05,26,14,06,24.10
2012,05,26,14,07,24.10
2012,05,26,14,08,24.10
2012,05,26,14,09,24.10
2012,05,26,14,10,24.10
2012,05,26,14,11,24.10
2012,05,26,14,12,24.10
2012,05,26,14,13,24.10
2012,05,26,14,14,24.10
2012,05,26,14,15,24.10
2012,05,26,14,16,24.10
2012,05,26,14,17,24.10
2012,05,26,14,18,24.10
2012,05,26,14,19,24.10
2012,05,26,14,20,24.10
2012,05,26,14,21,24.10
2012,05,26,14,22,24.10
2012,05,26,14,23,24.10
2012,05,26,14,24,24.10
2012,05,26,14,25,24.10
2012,05,26,14,26,24.10
2012,05,26,14,27,24.10
2012,05,26,14,28,24.10
2012,05,26,14,29,24.20
2012,05,26,14,30,24.20
2012,05,26,14,31,24.20
2012,05,26,14,32,24.20
2012,05,26,14,33,24.30
2012,05,26,14,34,24.30
2012,05,26,14,35,24.30
2012,05,26,14,36,24.30
2012,05,26,14,37,24.30
2012,05,26,14,38,24.30
2012,05,26,14,39,24.30
2012,05,26,14,40,24.20
2012,05,26,14,41,24.20
2012,05,26,14,42,24.20
2012,05,26,14,43,24.20
2012,05,26,14,44,24.30
2012,05,26,14,45,24.30
2012,05,26,14,46,24.20
2012,05,26,14,47,24.10
2012,05,26,14,48,24.20
2012,05,26,14,49,24.20
2012,05,26,14,50,24.20
2012,05,26,14,51,24.20
2012,05,26,14,52,24.20
2012,05,26,14,53,24.20
2012,05,26,14,54,24.20
2012,05,26,14,55,24.10
2012,05,26,14,56,24.10
2012,05,26,14,57,24.10
2012,05,26,14,58,24.00
2012,05,26,14,59,23.90
2012,05,26,15,00,24.00
2012,05,26,15,01,24.10
2012,05,26,15,02,24.10
2012,05,26,15,03,24.10
2012,05,26,15,04,24.10
2012,05,26,15,05,24.10
2012,05,26,15,06,24.10
2012,05,26,15,07,24.10
2012,05,26,15,08,24.10
2012,05,26,15,09,24.10
2012,05,26,15,10,24.20
2012,05,26,15,11,24.20
2012,05,26,15,12,24.30
2012,05,26,15,13,24.40
2012,05,26,15,14,24.50
2012,05,26,15,15,24.50
2012,05,26,15,16,24.50
2012,05,26,15,17,24.50
2012,05,26,15,18,24.50
2012,05,26,15,19,24.40
2012,05,26,15,20,24.50
2012,05,26,15,21,24.50
2012,05,26,15,22,24.50
2012,05,26,15,23,24.50
2012,05,26,15,24,24.50
2012,05,26,15,25,24.50
2012,05,26,15,26,24.50
2012,05,26,15,27,24.50
2012,05,26,15,28,24.50
2012,05,26,15,29,24.60
2012,05,26,15,30,24.60
2012,05,26,15,31,24.70
2012,05,26,15,32,24.80
2012,05,26,15,33,24.80
2012,05,26,15,34,24.90
2012,05,26,15,35,24.90
2012,05,26,15,36,24.70
2012,05,26,15,37,24.60
2012,05,26,15,38,24.50
2012,05,26,15,39,24.40
2012,05,26,15,40,24.30
2012,05,26,15,41,24.30
2012,05,26,15,42,24.20
2012,05,26,15,43,24.10
2012,05,26,15,44,24.10
2012,05,26,15,45,24.00
2012,05,26,15,46,23.90
2012,05,26,15,47,23.80
2012,05,26,15,48,23.70
2012,05,26,15,49,23.70
2012,05,26,15,50,23.60
2012,05,26,15,51,23.50
2012,05,26,15,52,23.40
2012,05,26,15,53,23.30
2012,05,26,15,54,23.30
2012,05,26,15,55,23.20
2012,05,26,15,56,23.10
2012,05,26,15,57,23.00
2012,05,26,15,58,22.90
2012,05,26,15,59,22.90
2012,05,26,16,00,22.80
2012,05,26,16,01,22.80
2012,05,26,16,02,22.70
2012,05,26,16,03,22.60
2012,05,26,16,04,22.60
2012,05,26,16,05,22.60
2012,05,26,16,06,22.50
2012,05,26,16,07,22.50
2012,05,26,16,08,22.50
2012,05,26,16,09,22.50
2012,05,26,16,10,22.60
2012,05,26,16,11,22.60
2012,05,26,16,12,22.70
2012,05,26,16,13,22.70
2012,05,26,16,14,22.70
2012,05,26,16,15,22.70
2012,05,26,16,16,22.80
2012,05,26,16,17,22.80
2012,05,26,16,18,22.90
2012,05,26,16,19,22.90
2012,05,26,16,20,22.90
2012,05,26,16,21,22.90
2012,05,26,16,22,22.90
2012,05,26,16,23,22.90
2012,05,26,16,24,22.90
2012,05,26,16,25,22.90
2012,05,26,16,26,22.90
2012,05,26,16,27,22.90
2012,05,26,16,28,22.90
2012,05,26,16,29,22.90
2012,05,26,16,30,22.90
2012,05,26,16,31,22.90
2012,05,26,16,32,22.90
2012,05,26,16,33,22.90
2012,05,26,16,34,22.90
2012,05,26,16,35,22.90
2012,05,26,16,36,22.90
2012,05,26,16,37,22.90
2012,05,26,16,38,22.90
2012,05,26,16,39,22.90
2012,05,26,16,40,22.90
2012,05,26,16,41,22.90
2012,05,26,16,42,22.90
2012,05,26,16,43,22.90
2012,05,26,16,44,22.90
2012,05,26,16,45,22.90
2012,05,26,16,46,22.90
2012,05,26,16,47,22.90
2012,05,26,16,48,22.90
2012,05,26,16,49,22.90
2012,05,26,16,50,22.90
2012,05,26,16,51,23.00
2012,05,26,16,52,23.00
2012,05,26,16,53,22.90
2012,05,26,16,54,23.00
2012,05,26,16,55,23.00
2012,05,26,16,56,23.00
2012,05,26,16,57,22.90
2012,05,26,16,58,22.90
2012,05,26,16,59,22.90
2012,05,26,17,00,22.90
2012,05,26,17,01,22.90
2012,05,26,17,02,22.90
2012,05,26,17,03,22.90
2012,05,26,17,04,22.80
2012,05,26,17,05,22.80
2012,05,26,17,06,22.80
2012,05,26,17,07,22.80
2012,05,26,17,08,22.70
2012,05,26,17,09,22.70
2012,05,26,17,10,22.70
2012,05,26,17,11,22.60
2012,05,26,17,12,22.60
2012,05,26,17,13,22.60
2012,05,26,17,14,22.60
2012,05,26,17,15,22.50
2012,05,26,17,16,22.50
2012,05,26,17,17,22.50
2012,05,26,17,18,22.50
2012,05,26,17,19,22.50
2012,05,26,17,20,22.50
2012,05,26,17,21,22.50
2012,05,26,17,22,22.40
2012,05,26,17,23,22.40
2012,05,26,17,24,22.40
2012,05,26,17,25,22.40